FW9915 Weather Reports


Display with metric or nautical units.
time (UTC)temp
F
wind
direction
speed
MPH
gust
MPH
rain 1hr
in
rain 24hr
in
rain mn
in
humidity
%
barometer
mb
20260904053520 72 28 5.0 7.0 0.00 0.00 0.00 75 1016.5
20260904052519 72 26 4.0 7.0 0.00 0.00 0.00 74 1016.5
20260904051539 71 14 4.0 7.0 0.00 0.00 0.00 76 1016.5
20260904050519 70 347 4.0 7.0 0.00 0.00 0.00 78 1016.5
20260904045539 69 349 4.0 7.0 0.00 0.00 0.00 79 1016.4
20260904044559 68 334 4.0 7.0 0.00 0.00 0.00 81 1016.4
20260904043519 67 319 3.0 7.0 0.00 0.00 0.00 82 1016.4
20260904042519 66 332 4.0 9.0 0.00 0.00 0.00 84 1016.4
20260904041519 65 328 4.0 7.0 0.00 0.00 0.00 85 1016.2
20260904040531 64 338 4.0 7.0 0.00 0.00 0.00 85 1016.1
20260904035519 64 342 5.0 7.0 0.00 0.00 0.00 85 1016.2
20260904034539 64 342 5.0 7.0 0.00 0.00 0.00 86 1016.1
20260904033519 64 348 4.0 4.0 0.00 0.00 0.00 86 1015.9
20260904032519 64 344 3.0 4.0 0.00 0.00 0.00 86 1015.8
20260904031519 65 339 4.0 7.0 0.00 0.00 0.00 84 1015.7
20260904030531 65 344 4.0 7.0 0.00 0.00 0.00 83 1015.6
20260904025531 65 338 3.0 7.0 0.00 0.00 0.00 82 1015.6
20260904024519 65 338 3.0 7.0 0.00 0.00 0.00 83 1015.5
20260904023531 65 338 2.0 4.0 0.00 0.00 0.00 84 1015.5
20260904022519 65 338 3.0 4.0 0.00 0.00 0.00 84 1015.5
20260904021519 65 338 3.0 7.0 0.00 0.00 0.00 84 1015.5
20260904020519 65 338 4.0 7.0 0.00 0.00 0.00 85 1015.6
20260904015519 65 341 4.0 7.0 0.00 0.00 0.00 85 1015.6
20260904014520 65 338 4.0 7.0 0.00 0.00 0.00 85 1015.6
20260904013520 65 339 3.0 4.0 0.00 0.00 0.00 85 1015.6
20260904012600 65 339 3.0 7.0 0.00 0.00 0.00 85 1015.6
20260904011539 65 350 2.0 4.0 0.00 0.00 0.00 84 1015.6
20260904010540 65 338 3.0 7.0 0.00 0.00 0.00 84 1015.5
20260904005519 65 339 3.0 7.0 0.00 0.00 0.00 85 1015.6
20260904004519 65 339 4.0 5.0 0.00 0.00 0.00 85 1015.7
20260904003539 65 346 4.0 7.0 0.00 0.00 0.00 86 1015.7
20260904002522 65 356 3.0 7.0 0.00 0.00 0.00 87 1015.7
20260904001552 65 359 3.0 7.0 0.00 0.00 0.00 88 1015.7
20260904000519 65 14 3.0 7.0 0.00 0.00 0.00 89 1015.8
20260903235519 65 17 2.0 4.0 0.00 0.00 0.00 89 1015.9
20260903234520 65 11 3.0 7.0 0.00 0.00 0.00 91 1015.9
20260903233519 65 19 2.0 4.0 0.00 0.00 0.00 92 1015.8
20260903232600 65 23 2.0 4.0 0.00 0.00 0.00 92 1015.9
20260903231519 65 13 2.0 4.0 0.00 0.00 0.00 93 1015.8
20260903230519 65 11 3.0 4.0 0.00 0.00 0.00 95 1015.9
20260903225551 65 17 2.0 4.0 0.00 0.00 0.00 97 1016.0
20260903224519 65 13 2.0 4.0 0.00 0.00 0.00 98 1016.1
20260903223519 65 23 1.0 4.0 0.00 0.00 0.00 99 1016.1
20260903222520 65 23 2.0 4.0 0.00 0.00 0.00 99 1016.1
20260903221539 65 23 1.0 4.0 0.00 0.00 0.00 99 1016.2
20260903220519 65 87 1.0 2.0 0.00 0.00 0.00 99 1016.3
20260903215531 65 113 0.0 2.0 0.00 0.00 0.00 99 1016.3
20260903214519 65 0.0 0.0 0.00 0.00 0.00 99 1016.3
20260903213519 65 0.0 0.0 0.00 0.00 0.00 99 1016.4
20260903212521 65 0.0 0.0 0.00 0.00 0.00 99 1016.3
20260903211519 65 0.0 0.0 0.00 0.00 0.00 99 1016.2
20260903210520 65 113 0.0 1.0 0.00 0.00 0.00 99 1016.3
20260903205519 66 113 0.0 1.0 0.00 0.00 0.00 99 1016.3
20260903204519 66 0.0 0.0 0.00 0.00 0.00 99 1016.3
20260903203519 66 113 0.0 2.0 0.00 0.00 0.00 99 1016.3
20260903202539 66 113 1.0 2.0 0.00 0.00 0.00 99 1016.3
20260903201539 66 135 0.0 2.0 0.00 0.00 0.00 99 1016.3
20260903200519 66 0.0 0.0 0.00 0.00 0.00 98 1016.4
20260903195519 66 0.0 0.0 0.00 0.00 0.00 98 1016.4
20260903194539 66 0.0 0.0 0.00 0.00 0.00 98 1016.4
20260903193539 67 135 0.0 2.0 0.00 0.00 0.00 98 1016.4
20260903192531 67 0.0 0.0 0.00 0.00 0.00 98 1016.5
20260903191520 67 0.0 0.0 0.00 0.00 0.00 97 1016.5
20260903190519 67 0.0 0.0 0.00 0.00 0.00 97 1016.4
20260903185520 67 0.0 0.0 0.00 0.00 0.00 97 1016.4
20260903184519 68 0.0 0.0 0.00 0.00 0.00 96 1016.3
20260903183540 69 0.0 0.0 0.00 0.00 0.00 96 1016.3
20260903182520 69 0.0 0.0 0.00 0.00 0.00 96 1016.2
20260903181520 69 0.0 0.0 0.00 0.00 0.00 95 1016.2
20260903180519 69 0.0 0.0 0.00 0.00 0.00 95 1016.3
20260903175519 70 0.0 0.0 0.00 0.00 0.00 95 1016.2
20260903174519 70 135 0.0 2.0 0.00 0.00 0.00 95 1016.2
20260903173531 71 0.0 0.0 0.00 0.00 0.00 95 1016.2
20260903172520 71 0.0 0.0 0.00 0.00 0.00 94 1016.1
20260903171519 71 0.0 0.0 0.00 0.00 0.00 93 1016.0
20260903170531 72 135 1.0 2.0 0.00 0.00 0.00 92 1016.0
20260903165620 72 135 1.0 2.0 0.00 0.00 0.00 91 1016.0
20260903164520 72 131 2.0 4.0 0.00 0.00 0.00 90 1016.0
20260903163519 72 135 2.0 4.0 0.00 0.00 0.00 89 1015.9
20260903162532 72 135 2.0 4.0 0.00 0.00 0.00 88 1016.0
20260903161520 72 113 2.0 4.0 0.00 0.00 0.00 86 1015.9
20260903160540 73 113 1.0 4.0 0.00 0.00 0.00 85 1015.8
20260903155519 73 113 2.0 2.0 0.00 0.00 0.00 84 1015.8
20260903154652 73 113 0.0 2.0 0.00 0.00 0.00 82 1015.8
20260903153519 74 115 2.0 4.0 0.00 0.00 0.00 82 1015.8
20260903152531 75 203 1.0 2.0 0.00 0.00 0.00 78 1016.0
20260903151519 75 182 2.0 4.0 0.00 0.00 0.00 77 1016.0
20260903150520 75 80 1.0 4.0 0.00 0.00 0.00 76 1016.2
20260903145519 74 53 2.0 9.0 0.00 0.00 0.00 79 1016.3
20260903144520 74 90 1.0 4.0 0.00 0.00 0.00 79 1016.1
20260903143520 74 113 2.0 2.0 0.00 0.00 0.00 77 1016.2
20260903142519 74 115 2.0 4.0 0.00 0.00 0.00 75 1016.2
20260903141520 74 135 1.0 2.0 0.00 0.00 0.00 76 1016.0
20260903140559 74 159 1.0 4.0 0.00 0.00 0.00 77 1015.8
20260903135600 75 162 2.0 4.0 0.00 0.00 0.00 76 1015.9
20260903134543 75 180 3.0 4.0 0.00 0.00 0.00 75 1015.9
20260903133520 75 120 3.0 7.0 0.00 0.00 0.00 75 1015.9
20260903132520 76 128 2.0 4.0 0.00 0.00 0.00 72 1015.9
20260903131552 76 117 4.0 7.0 0.00 0.00 0.00 71 1015.8
20260903130539 77 124 3.0 7.0 0.00 0.00 0.00 71 1015.8
20260903125519 77 119 3.0 4.0 0.00 0.00 0.00 72 1016.0
20260903124519 77 143 3.0 4.0 0.00 0.00 0.00 71 1016.1
20260903123519 77 150 3.0 7.0 0.00 0.00 0.00 73 1016.1
20260903122520 75 136 4.0 9.0 0.00 0.00 0.00 75 1016.1
20260903121519 76 172 3.0 7.0 0.00 0.00 0.00 73 1016.1
20260903120520 77 182 5.0 9.0 0.00 0.00 0.00 69 1016.2
20260903115540 77 137 3.0 7.0 0.00 0.00 0.00 70 1016.3
20260903114520 76 141 5.0 9.0 0.00 0.00 0.00 69 1016.4
20260903113519 77 159 4.0 9.0 0.00 0.00 0.00 66 1016.4
20260903112519 77 137 4.0 7.0 0.00 0.00 0.00 66 1016.5
20260903111520 76 140 4.0 7.0 0.00 0.00 0.00 64 1016.5
20260903110519 76 133 5.0 7.0 0.00 0.00 0.00 62 1016.6
20260903105519 77 127 3.0 7.0 0.00 0.00 0.00 61 1016.7
20260903104600 78 125 4.0 7.0 0.00 0.00 0.00 60 1016.7
20260903103532 78 173 4.0 7.0 0.00 0.00 0.00 59 1016.8
20260903102519 78 161 3.0 7.0 0.00 0.00 0.00 60 1017.0
20260903101520 78 168 3.0 7.0 0.00 0.00 0.00 60 1017.0
20260903100519 78 183 4.0 7.0 0.00 0.00 0.00 60 1017.1
20260903095520 77 138 4.0 7.0 0.00 0.00 0.00 62 1017.1
20260903094520 78 186 4.0 7.0 0.00 0.00 0.00 59 1017.1
20260903093532 79 183 3.0 4.0 0.00 0.00 0.00 56 1017.1
20260903092540 79 182 4.0 7.0 0.00 0.00 0.00 56 1017.2
20260903091520 78 158 3.0 4.0 0.00 0.00 0.00 60 1017.3
20260903090532 78 153 2.0 4.0 0.00 0.00 0.00 60 1017.3
20260903085544 78 174 3.0 7.0 0.00 0.00 0.00 58 1017.4
20260903084520 78 158 1.0 2.0 0.00 0.00 0.00 58 1017.5
20260903083531 78 152 2.0 4.0 0.00 0.00 0.00 57 1017.5
20260903082519 77 193 2.0 7.0 0.00 0.00 0.00 58 1017.6
20260903081544 78 173 3.0 7.0 0.00 0.00 0.00 61 1017.5
20260903080543 77 169 4.0 7.0 0.00 0.00 0.00 62 1017.5
20260903075520 78 170 2.0 4.0 0.00 0.00 0.00 63 1017.4
20260903074520 77 180 2.0 2.0 0.00 0.00 0.00 63 1017.4
20260903073556 77 180 3.0 4.0 0.00 0.00 0.00 62 1017.5
20260903072552 78 180 1.0 4.0 0.00 0.00 0.00 60 1017.5
20260903071531 78 180 2.0 4.0 0.00 0.00 0.00 60 1017.5
20260903070520 76 180 2.0 4.0 0.00 0.00 0.00 62 1017.5
20260903065519 76 180 2.0 4.0 0.00 0.00 0.00 62 1017.4
20260903064540 78 180 2.0 4.0 0.00 0.00 0.00 60 1017.4
20260903063520 79 114 2.0 4.0 0.00 0.00 0.00 53 1017.3
20260903062520 79 23 2.0 4.0 0.00 0.00 0.00 51 1017.4
20260903061520 80 0.0 0.0 0.00 0.00 0.00 49 1017.3
20260903060543 83 0.0 0.0 0.00 0.00 0.00 50 1017.3
20260903055520 80 0.0 0.0 0.00 0.00 0.00 55 1017.4
20260903054532 78 0.0 0.0 0.00 0.00 0.00 61 1017.3